This is the latest recevied weather packets stored in our database for station/object E25WOP-13. If no packets are shown the sender has not sent any weather packets the latest 10 day(s).
| Time | Temp. | Humidity | Pressure | Rain* | Wind** | Luminosity | Snow |
|---|---|---|---|---|---|---|---|
| 1777702932 | 33.89° C | 63% | 1006.5 hPa | 0 mm | - | 1141 W/m² | - |
| 1777702332 | 33.33° C | 62% | 1006.6 hPa | 0 mm | - | 1141 W/m² | - |
| 1777701732 | 33.89° C | 63% | 1007 hPa | 0 mm | - | 973 W/m² | - |
| 1777701132 | 33.89° C | 62% | 1007.3 hPa | 0 mm | - | 1101 W/m² | - |
| 1777700532 | 33.33° C | 65% | 1007.2 hPa | 0 mm | - | 1100 W/m² | - |
| 1777699932 | 33.89° C | 61% | 1007.2 hPa | 0 mm | - | 1144 W/m² | - |
| 1777699332 | 33.89° C | 65% | 1007.5 hPa | 0 mm | - | 1146 W/m² | - |
| 1777698732 | 33.33° C | 65% | 1007.5 hPa | 0 mm | - | 1147 W/m² | - |
| 1777698132 | 33.89° C | 64% | 1007.8 hPa | 0 mm | - | 1147 W/m² | - |
| 1777697532 | 33.33° C | 64% | 1007.7 hPa | 0 mm | - | 1148 W/m² | - |
| 1777696931 | 33.33° C | 68% | 1007.8 hPa | 0 mm | - | 1147 W/m² | - |
| 1777696331 | 32.78° C | 67% | 1008.1 hPa | 0 mm | - | 1144 W/m² | - |
| 1777695731 | 32.78° C | 67% | 1007.8 hPa | 0 mm | - | 1141 W/m² | - |
| 1777695131 | 32.78° C | 68% | 1008.1 hPa | 0 mm | - | 980 W/m² | - |
| 1777694531 | 32.78° C | 69% | 1008.5 hPa | 0 mm | - | 924 W/m² | - |
| 1777693931 | 32.78° C | 69% | 1008.4 hPa | 0 mm | - | 1139 W/m² | - |
| 1777693331 | 32.78° C | 69% | 1008.5 hPa | 0 mm | - | 1139 W/m² | - |
| 1777692731 | 32.22° C | 71% | 1008.5 hPa | 0 mm | - | 1101 W/m² | - |
| 1777692131 | 31.67° C | 72% | 1008.7 hPa | 0 mm | - | 942 W/m² | - |
| 1777691531 | 31.67° C | 74% | 1008.8 hPa | 0 mm | - | 506 W/m² | - |
| 1777690931 | 32.22° C | 75% | 1008.7 hPa | 0 mm | - | 858 W/m² | - |
| 1777690331 | 31.67° C | 76% | 1008.7 hPa | 0 mm | - | 869 W/m² | - |
| 1777689731 | 30.56° C | 79% | 1008.8 hPa | 0 mm | - | 406 W/m² | - |
| 1777689131 | -17.78° C | - | 1008.8 hPa | 0 mm | - | - | - |
| 1777688531 | 30.56° C | 81% | 1008.9 hPa | 0 mm | - | 371 W/m² | - |
* Rain latest hour (hover to see other rain measurements)
** Current wind speed in m/s (hover to see current wind gust speed)